Location: Unspecified
(0.0000°N, 0.0000°E)
Time: 22:56:02
(UTC+00:00)

Vela 2A - Pass Details

Date: 03 December 2021
Orbit: 17927 x 188591 km, 32.3° (Epoch: 11 January)

Event Time Altitude Azimuth Distance (km) Brightness Sun altitude
Rises 09:50:40 0° 68° (ENE) 188,538 ? 53.5°
Reaches altitude 10° 10:35:54 10° 68° (ENE) 186,511 ? 61.4°
Maximum altitude 16:02:27 70° 359° (N) 173,171 ? 24.7°
Drops below altitude 10° 21:26:37 10° 288° (WNW) 165,859 ? -48.6°
Sets 22:11:05 0° 287° (WNW) 165,009 ? -57.2°
